When you browse on this site, cookies collect data to enhance your experience and personalize the content and advertising you see.
Visit our Privacy Policy to learn more. By continuing to use the site, you agree to this use of cookies and data.
  • In Denmark
  • List of Countries
  • For 7 days
  • Water Temperature
  • Satellite Maps
  • Weather Map
  • Weather Widgets
  • user-avatar
    Login

    Hourly Weather Perth

    Today, 21 November, Wednesday

    Time Temperature Precipitation Wind Pressure Humidity
    00:00 +14°C° 0 mm 4 mps 762 mmHg 68%
    01:00 +13°C° 0 mm 4 mps 762 mmHg 73%
    02:00 +13°C° 0 mm 3 mps 762 mmHg 79%
    03:00 +12°C° 0 mm 4 mps 762 mmHg 81%
    04:00 +12°C° 0 mm 4 mps 761 mmHg 82%
    05:00 +12°C° 0 mm 4 mps 761 mmHg 84%
    06:00 +14°C° 0 mm 4 mps 761 mmHg 75%
    07:00 +17°C° 0 mm 4 mps 761 mmHg 66%
    08:00 +18°C° 0 mm 3 mps 761 mmHg 55%
    09:00 +20°C° 0 mm 3 mps 761 mmHg 49%
    10:00 +22°C° 0 mm 3 mps 760 mmHg 42%
    11:00 +25°C° 0 mm 2 mps 760 mmHg 36%
    12:00 +27°C° 0 mm 3 mps 759 mmHg 33%
    13:00 +28°C° 0 mm 3 mps 758 mmHg 31%
    14:00 +29°C° 0 mm 3 mps 758 mmHg 28%
    15:00 +29°C° 0 mm 4 mps 757 mmHg 31%
    16:00 +28°C° 0 mm 4 mps 757 mmHg 33%
    17:00 +27°C° 0 mm 5 mps 757 mmHg 36%
    18:00 +25°C° 0 mm 5 mps 756 mmHg 42%
    19:00 +22°C° 0 mm 4 mps 756 mmHg 49%
    20:00 +20°C° 0 mm 4 mps 756 mmHg 56%
    21:00 +20°C° 0 mm 5 mps 756 mmHg 53%
    22:00 +20°C° 0 mm 5 mps 756 mmHg 49%
    23:00 +20°C° 0 mm 5 mps 756 mmHg 46%

    Tomorrow, 22 November, Thursday

    Time Temperature Precipitation Wind Pressure Humidity
    00:00 +20°C° 0 mm 6 mps 755 mmHg 47%
    01:00 +20°C° 0 mm 6 mps 755 mmHg 47%
    02:00 +20°C° 0 mm 7 mps 754 mmHg 47%
    03:00 +18°C° 0 mm 7 mps 754 mmHg 47%
    04:00 +19°C° 0 mm 6 mps 754 mmHg 46%
    05:00 +19°C° 0 mm 6 mps 754 mmHg 46%
    06:00 +20°C° 0 mm 6 mps 754 mmHg 44%
    07:00 +21°C° 0 mm 6 mps 754 mmHg 43%
    08:00 +21°C° 0 mm 6 mps 754 mmHg 41%
    09:00 +23°C° 0 mm 6 mps 754 mmHg 38%
    10:00 +26°C° 0 mm 6 mps 753 mmHg 35%
    11:00 +27°C° 0 mm 5 mps 753 mmHg 31%
    12:00 +29°C° 0 mm 6 mps 752 mmHg 28%
    13:00 +30°C° 0 mm 7 mps 751 mmHg 26%
    14:00 +33°C° 0 mm 7 mps 750 mmHg 23%
    15:00 +32°C° 0 mm 8 mps 750 mmHg 25%
    16:00 +31°C° 0 mm 8 mps 749 mmHg 26%
    17:00 +29°C° 0 mm 9 mps 749 mmHg 28%
    18:00 +27°C° 0 mm 8 mps 750 mmHg 32%
    19:00 +26°C° 0 mm 7 mps 750 mmHg 36%
    20:00 +23°C° 0 mm 6 mps 751 mmHg 40%
    21:00 +22°C° 0 mm 6 mps 751 mmHg 44%
    22:00 +22°C° 0 mm 6 mps 752 mmHg 48%
    23:00 +21°C° 0 mm 6 mps 752 mmHg 51%

    Day after tomorrow, 23 November, Friday

    Time Temperature Precipitation Wind Pressure Humidity
    00:00 +20°C° 0 mm 5 mps 752 mmHg 55%
    01:00 +20°C° 0 mm 5 mps 752 mmHg 59%
    02:00 +19°C° 0 mm 4 mps 752 mmHg 63%
    03:00 +18°C° 0 mm 4 mps 753 mmHg 65%
    04:00 +18°C° 0 mm 4 mps 753 mmHg 67%
    05:00 +18°C° 0 mm 3 mps 754 mmHg 69%
    06:00 +19°C° 0 mm 3 mps 754 mmHg 66%
    07:00 +19°C° 0 mm 3 mps 755 mmHg 63%
    08:00 +20°C° 0 mm 3 mps 755 mmHg 59%
    09:00 +22°C° 0 mm 3 mps 755 mmHg 54%
    10:00 +23°C° 0 mm 4 mps 756 mmHg 49%
    11:00 +26°C° 0 mm 4 mps 756 mmHg 44%
    12:00 +26°C° 0 mm 5 mps 756 mmHg 43%
    13:00 +26°C° 0 mm 5 mps 755 mmHg 42%
    14:00 +26°C° 0 mm 6 mps 755 mmHg 41%
    15:00 +26°C° 0 mm 6 mps 756 mmHg 45%
    16:00 +24°C° 0 mm 6 mps 756 mmHg 49%
    17:00 +23°C° 0 mm 7 mps 756 mmHg 52%
    18:00 +22°C° 0 mm 6 mps 756 mmHg 59%
    19:00 +20°C° 0 mm 5 mps 757 mmHg 65%
    20:00 +19°C° 0 mm 5 mps 758 mmHg 71%
    21:00 +18°C° 0 mm 4 mps 758 mmHg 75%
    22:00 +18°C° 0 mm 4 mps 759 mmHg 79%
    23:00 +17°C° 0 mm 4 mps 759 mmHg 83%

    24 November, Saturday

    Time Temperature Precipitation Wind Pressure Humidity
    00:00 +16°C° 0 mm 3 mps 759 mmHg 84%
    01:00 +16°C° 0 mm 3 mps 759 mmHg 86%
    02:00 +14°C° 0 mm 3 mps 758 mmHg 87%
    03:00 +15°C° 0 mm 2 mps 759 mmHg 88%
    04:00 +15°C° 0 mm 2 mps 759 mmHg 88%
    05:00 +14°C° 0 mm 2 mps 759 mmHg 88%
    06:00 +17°C° 0 mm 2 mps 759 mmHg 79%
    07:00 +19°C° 0 mm 2 mps 759 mmHg 69%
    08:00 +21°C° 0 mm 2 mps 760 mmHg 59%
    09:00 +23°C° 0 mm 2 mps 760 mmHg 54%
    10:00 +24°C° 0 mm 3 mps 759 mmHg 48%
    11:00 +26°C° 0 mm 4 mps 759 mmHg 42%
    12:00 +26°C° 0 mm 4 mps 759 mmHg 42%
    13:00 +26°C° 0 mm 5 mps 758 mmHg 42%
    14:00 +26°C° 0 mm 5 mps 758 mmHg 41%
    15:00 +25°C° 0 mm 5 mps 758 mmHg 45%
    16:00 +22°C° 0 mm 6 mps 758 mmHg 49%
    17:00 +21°C° 0 mm 6 mps 758 mmHg 54%
    18:00 +20°C° 0 mm 5 mps 758 mmHg 61%
    19:00 +18°C° 0 mm 4 mps 759 mmHg 69%
    20:00 +15°C° 0 mm 4 mps 759 mmHg 77%
    21:00 +15°C° 0 mm 4 mps 759 mmHg 79%
    22:00 +14°C° 0 mm 3 mps 759 mmHg 80%
    23:00 +13°C° 0 mm 3 mps 759 mmHg 82%

    25 November, Sunday

    Time Temperature Precipitation Wind Pressure Humidity
    00:00 +13°C° 0 mm 3 mps 759 mmHg 82%
    01:00 +13°C° 0 mm 3 mps 758 mmHg 82%
    02:00 +12°C° 0 mm 3 mps 758 mmHg 83%
    03:00 +14°C° 0 mm 2 mps 758 mmHg 84%
    04:00 +14°C° 0 mm 2 mps 758 mmHg 84%
    05:00 +14°C° 0 mm 2 mps 758 mmHg 85%
    06:00 +14°C° 0.2 mm 3 mps 758 mmHg 80%
    07:00 +17°C° 0.2 mm 3 mps 758 mmHg 75%
    08:00 +18°C° 0.2 mm 4 mps 758 mmHg 70%
    09:00 +19°C° 0.2 mm 5 mps 758 mmHg 66%
    10:00 +20°C° 0.2 mm 5 mps 758 mmHg 61%
    11:00 +21°C° 0.2 mm 6 mps 758 mmHg 57%
    12:00 +21°C° 0 mm 6 mps 758 mmHg 53%
    13:00 +21°C° 0 mm 6 mps 758 mmHg 49%
    14:00 +22°C° 0 mm 6 mps 758 mmHg 46%
    15:00 +21°C° 0 mm 6 mps 758 mmHg 44%
    16:00 +20°C° 0 mm 7 mps 758 mmHg 43%
    17:00 +20°C° 0 mm 7 mps 758 mmHg 42%
    18:00 +17°C° 0 mm 6 mps 759 mmHg 47%
    19:00 +16°C° 0 mm 6 mps 759 mmHg 52%
    20:00 +14°C° 0 mm 6 mps 760 mmHg 57%
    21:00 +13°C° 0 mm 6 mps 760 mmHg 56%
    22:00 +13°C° 0 mm 6 mps 761 mmHg 56%
    23:00 +11°C° 0 mm 6 mps 761 mmHg 56%

    26 November, Monday

    Time Temperature Precipitation Wind Pressure Humidity
    00:00 +11°C° 0 mm 6 mps 761 mmHg 58%
    01:00 +10°C° 0 mm 5 mps 761 mmHg 60%
    02:00 +9°C° 0 mm 5 mps 761 mmHg 63%
    03:00 +8°C° 0 mm 4 mps 761 mmHg 65%
    04:00 +8°C° 0 mm 4 mps 761 mmHg 67%
    05:00 +7°C° 0 mm 4 mps 762 mmHg 69%
    06:00 +10°C° 0 mm 4 mps 762 mmHg 61%
    07:00 +12°C° 0 mm 4 mps 763 mmHg 54%
    08:00 +14°C° 0 mm 4 mps 763 mmHg 46%
    09:00 +17°C° 0 mm 4 mps 763 mmHg 41%
    10:00 +18°C° 0 mm 4 mps 763 mmHg 35%
    11:00 +20°C° 0 mm 3 mps 763 mmHg 30%
    12:00 +21°C° 0 mm 4 mps 762 mmHg 30%
    13:00 +22°C° 0 mm 4 mps 762 mmHg 30%
    14:00 +23°C° 0 mm 5 mps 761 mmHg 30%
    15:00 +22°C° 0 mm 5 mps 761 mmHg 33%
    16:00 +22°C° 0 mm 6 mps 761 mmHg 37%
    17:00 +21°C° 0 mm 6 mps 761 mmHg 40%
    18:00 +19°C° 0 mm 6 mps 761 mmHg 46%
    19:00 +17°C° 0 mm 6 mps 762 mmHg 52%
    20:00 +15°C° 0 mm 6 mps 762 mmHg 58%
    21:00 +15°C° 0 mm 5 mps 762 mmHg 57%
    22:00 +14°C° 0 mm 5 mps 763 mmHg 57%
    23:00 +14°C° 0 mm 5 mps 763 mmHg 56%
    Show more